Time,TemperatureF,DewpointF,PressureIn,WindDirection,WindDirectionDegrees,WindSpeedMPH,WindSpeedGustMPH,Humidity,HourlyPrecipIn,Conditions,Clouds,dailyrainin,SoftwareType,DateUTC
2014-04-16 00:09:00,75.1,71.0,29.88,WNW,289,0.0,-999.0,86,-99.99,,,0.00,weatherlink.com 1.10,2014-04-16 04:09:00,
2014-04-16 00:24:00,74.5,71.0,29.87,NW,313,0.0,-999.0,87,-99.99,,,0.00,weatherlink.com 1.10,2014-04-16 04:24:00,
2014-04-16 00:39:00,74.0,70.0,29.87,NW,314,0.0,-999.0,87,-99.99,,,0.00,weatherlink.com 1.10,2014-04-16 04:39:00,
2014-04-16 00:55:00,73.8,70.0,29.88,NNW,333,0.0,-999.0,88,-99.99,,,0.00,weatherlink.com 1.10,2014-04-16 04:55:00,
2014-04-16 01:10:00,73.6,70.0,29.88,West,273,0.0,-999.0,88,-99.99,,,0.00,weatherlink.com 1.10,2014-04-16 05:10:00,
2014-04-16 01:25:00,73.4,70.0,29.88,NNW,342,0.0,-999.0,89,-99.99,,,0.00,weatherlink.com 1.10,2014-04-16 05:25:00,
2014-04-16 01:40:00,73.2,70.0,29.88,NW,312,0.0,-999.0,90,-99.99,,,0.00,weatherlink.com 1.10,2014-04-16 05:40:00,
2014-04-16 01:55:00,73.0,70.0,29.88,NNW,338,4.0,-999.0,90,-99.99,,,0.00,weatherlink.com 1.10,2014-04-16 05:55:00,
2014-04-16 02:10:00,72.8,70.0,29.88,North,355,0.0,-999.0,90,-99.99,,,0.00,weatherlink.com 1.10,2014-04-16 06:10:00,
2014-04-16 02:25:00,72.5,70.0,29.87,North,355,0.0,-999.0,90,-99.99,,,0.00,weatherlink.com 1.10,2014-04-16 06:25:00,
2014-04-16 02:40:00,72.4,69.0,29.87,NW,323,0.0,-999.0,90,-99.99,,,0.00,weatherlink.com 1.10,2014-04-16 06:40:00,
2014-04-16 02:55:00,72.1,69.0,29.87,NW,319,0.0,-999.0,89,-99.99,,,0.00,weatherlink.com 1.10,2014-04-16 06:55:00,
2014-04-16 03:10:00,71.8,69.0,29.88,NW,316,0.0,-999.0,90,-99.99,,,0.00,weatherlink.com 1.10,2014-04-16 07:10:00,
2014-04-16 03:25:00,71.5,69.0,29.88,NW,318,0.0,-999.0,90,-99.99,,,0.00,weatherlink.com 1.10,2014-04-16 07:25:00,
2014-04-16 03:40:00,71.4,69.0,29.89,NW,319,0.0,-999.0,91,-99.99,,,0.00,weatherlink.com 1.10,2014-04-16 07:40:00,
2014-04-16 03:56:00,71.2,69.0,29.89,NW,311,3.0,-999.0,92,-99.99,,,0.00,weatherlink.com 1.10,2014-04-16 07:56:00,
2014-04-16 04:11:00,71.0,69.0,29.89,NW,313,0.0,-999.0,92,-99.99,,,0.00,weatherlink.com 1.10,2014-04-16 08:11:00,
2014-04-16 04:26:00,70.9,68.0,29.90,NE,34,0.0,-999.0,89,-99.99,,,0.00,weatherlink.com 1.10,2014-04-16 08:26:00,
2014-04-16 04:41:00,70.6,67.0,29.91,North,355,1.0,-999.0,88,-99.99,,,0.00,weatherlink.com 1.10,2014-04-16 08:41:00,
2014-04-16 04:56:00,70.3,67.0,29.91,North,360,0.0,-999.0,89,-99.99,,,0.00,weatherlink.com 1.10,2014-04-16 08:56:00,
2014-04-16 05:11:00,70.1,67.0,29.92,NE,53,1.0,-999.0,90,-99.99,,,0.00,weatherlink.com 1.10,2014-04-16 09:11:00,
2014-04-16 05:26:00,68.4,67.0,29.92,NE,55,7.0,-999.0,94,-99.99,,,0.00,weatherlink.com 1.10,2014-04-16 09:26:00,
2014-04-16 05:41:00,66.7,66.0,29.93,NNW,346,0.0,-999.0,97,-99.99,,,0.01,weatherlink.com 1.10,2014-04-16 09:41:00,
2014-04-16 06:46:00,64.7,63.0,29.95,NNE,14,2.0,-999.0,94,-99.99,,,0.01,weatherlink.com 1.10,2014-04-16 10:46:00,
2014-04-16 07:01:00,65.0,63.0,29.95,NNE,30,2.0,-999.0,93,-99.99,,,0.01,weatherlink.com 1.10,2014-04-16 11:01:00,
2014-04-16 07:16:00,65.1,63.0,29.96,NNE,29,1.0,-999.0,91,-99.99,,,0.02,weatherlink.com 1.10,2014-04-16 11:16:00,
2014-04-16 07:31:00,65.1,62.0,29.97,NNE,13,1.0,-999.0,90,-99.99,,,0.02,weatherlink.com 1.10,2014-04-16 11:31:00,
2014-04-16 07:46:00,64.9,62.0,29.97,ENE,68,5.0,-999.0,89,-99.99,,,0.02,weatherlink.com 1.10,2014-04-16 11:46:00,
2014-04-16 08:02:00,65.0,61.0,29.98,North,360,7.0,-999.0,88,-99.99,,,0.02,weatherlink.com 1.10,2014-04-16 12:02:00,
2014-04-16 08:17:00,65.2,61.0,29.98,NNE,21,10.0,-999.0,86,-99.99,,,0.02,weatherlink.com 1.10,2014-04-16 12:17:00,
2014-04-16 08:32:00,65.0,60.0,29.98,NE,43,1.0,-999.0,85,-99.99,,,0.02,weatherlink.com 1.10,2014-04-16 12:32:00,
2014-04-16 08:47:00,65.2,61.0,29.99,NNE,32,1.0,-999.0,86,-99.99,,,0.02,weatherlink.com 1.10,2014-04-16 12:47:00,
2014-04-16 09:02:00,65.0,60.0,30.00,NNE,26,1.0,-999.0,85,-99.99,,,0.02,weatherlink.com 1.10,2014-04-16 13:02:00,
2014-04-16 09:17:00,65.2,61.0,30.00,NNE,32,1.0,-999.0,85,-99.99,,,0.02,weatherlink.com 1.10,2014-04-16 13:17:00,
2014-04-16 09:32:00,65.4,61.0,30.00,NNE,16,4.0,-999.0,85,-99.99,,,0.02,weatherlink.com 1.10,2014-04-16 13:32:00,
2014-04-16 09:47:00,66.0,61.0,30.00,NNE,13,2.0,-999.0,85,-99.99,,,0.02,weatherlink.com 1.10,2014-04-16 13:47:00,
2014-04-16 10:02:00,66.2,61.0,30.02,NNE,22,9.0,-999.0,84,-99.99,,,0.02,weatherlink.com 1.10,2014-04-16 14:02:00,
2014-04-16 10:17:00,66.4,62.0,30.02,NE,51,2.0,-999.0,85,-99.99,,,0.02,weatherlink.com 1.10,2014-04-16 14:17:00,
2014-04-16 10:32:00,66.9,62.0,30.03,North,5,0.0,-999.0,84,-99.99,,,0.02,weatherlink.com 1.10,2014-04-16 14:32:00,
2014-04-16 10:47:00,67.1,62.0,30.04,NE,40,2.0,-999.0,84,-99.99,,,0.02,weatherlink.com 1.10,2014-04-16 14:47:00,
2014-04-16 11:03:00,67.9,63.0,30.04,NE,38,3.0,-999.0,83,-99.99,,,0.02,weatherlink.com 1.10,2014-04-16 15:03:00,
2014-04-16 11:18:00,68.3,63.0,30.04,NE,34,1.0,-999.0,83,-99.99,,,0.02,weatherlink.com 1.10,2014-04-16 15:18:00,
2014-04-16 11:33:00,68.9,64.0,30.04,NE,42,5.0,-999.0,83,-99.99,,,0.02,weatherlink.com 1.10,2014-04-16 15:33:00,
2014-04-16 11:48:00,69.4,64.0,30.04,NNE,32,0.0,-999.0,83,-99.99,,,0.02,weatherlink.com 1.10,2014-04-16 15:48:00,
2014-04-16 12:03:00,70.7,65.0,30.04,NNE,23,5.0,-999.0,81,-99.99,,,0.02,weatherlink.com 1.10,2014-04-16 16:03:00,
2014-04-16 12:18:00,70.6,65.0,30.04,NE,38,0.0,-999.0,82,-99.99,,,0.02,weatherlink.com 1.10,2014-04-16 16:18:00,
2014-04-16 12:33:00,71.2,66.0,30.04,NNE,30,0.0,-999.0,83,-99.99,,,0.02,weatherlink.com 1.10,2014-04-16 16:33:00,
2014-04-16 13:03:00,71.8,66.0,30.03,NE,47,2.0,-999.0,81,-99.99,,,0.02,weatherlink.com 1.10,2014-04-16 17:03:00,
2014-04-16 13:18:00,72.3,66.0,30.03,NNE,26,7.0,-999.0,80,-99.99,,,0.02,weatherlink.com 1.10,2014-04-16 17:18:00,
2014-04-16 13:33:00,72.4,66.0,30.03,NE,49,4.0,-999.0,80,-99.99,,,0.02,weatherlink.com 1.10,2014-04-16 17:33:00,
2014-04-16 13:48:00,72.3,66.0,30.03,NE,47,2.0,-999.0,80,-99.99,,,0.02,weatherlink.com 1.10,2014-04-16 17:48:00,
2014-04-16 14:03:00,72.8,66.0,30.03,NNE,15,1.0,-999.0,80,-99.99,,,0.02,weatherlink.com 1.10,2014-04-16 18:03:00,
2014-04-16 14:19:00,73.1,67.0,30.03,NNE,27,0.0,-999.0,80,-99.99,,,0.02,weatherlink.com 1.10,2014-04-16 18:19:00,
2014-04-16 14:34:00,74.0,67.0,30.02,NE,44,9.0,-999.0,79,-99.99,,,0.02,weatherlink.com 1.10,2014-04-16 18:34:00,
2014-04-16 14:49:00,73.9,67.0,30.02,NNE,22,7.0,-999.0,80,-99.99,,,0.02,weatherlink.com 1.10,2014-04-16 18:49:00,
2014-04-16 15:04:00,74.0,67.0,30.02,East,84,0.0,-999.0,79,-99.99,,,0.02,weatherlink.com 1.10,2014-04-16 19:04:00,
2014-04-16 15:19:00,74.2,67.0,30.02,NNE,24,4.0,-999.0,79,-99.99,,,0.02,weatherlink.com 1.10,2014-04-16 19:19:00,
2014-04-16 15:34:00,74.4,68.0,30.01,NE,40,0.0,-999.0,79,-99.99,,,0.02,weatherlink.com 1.10,2014-04-16 19:34:00,
2014-04-16 15:49:00,73.4,69.0,30.00,East,81,5.0,-999.0,86,-99.99,,,0.02,weatherlink.com 1.10,2014-04-16 19:49:00,
2014-04-16 16:04:00,72.6,68.0,30.00,ENE,70,1.0,-999.0,86,-99.99,,,0.02,weatherlink.com 1.10,2014-04-16 20:04:00,
2014-04-16 16:19:00,73.1,68.0,30.00,East,87,7.0,-999.0,85,-99.99,,,0.02,weatherlink.com 1.10,2014-04-16 20:19:00,
2014-04-16 16:34:00,73.2,68.0,30.00,North,349,1.0,-999.0,84,-99.99,,,0.02,weatherlink.com 1.10,2014-04-16 20:34:00,
2014-04-16 16:49:00,73.2,68.0,30.00,ENE,71,1.0,-999.0,84,-99.99,,,0.02,weatherlink.com 1.10,2014-04-16 20:49:00,
2014-04-16 17:04:00,72.7,68.0,30.00,NE,43,6.0,-999.0,85,-99.99,,,0.02,weatherlink.com 1.10,2014-04-16 21:04:00,
2014-04-16 17:19:00,72.6,68.0,30.00,East,99,2.0,-999.0,85,-99.99,,,0.02,weatherlink.com 1.10,2014-04-16 21:19:00,
2014-04-16 17:34:00,72.4,68.0,30.00,NNE,13,7.0,-999.0,86,-99.99,,,0.02,weatherlink.com 1.10,2014-04-16 21:34:00,
2014-04-16 17:50:00,72.9,68.0,30.00,East,79,2.0,-999.0,84,-99.99,,,0.02,weatherlink.com 1.10,2014-04-16 21:50:00,
2014-04-16 18:05:00,72.7,68.0,30.00,NNE,31,5.0,-999.0,84,-99.99,,,0.02,weatherlink.com 1.10,2014-04-16 22:05:00,
2014-04-16 18:20:00,72.3,68.0,30.00,East,81,3.0,-999.0,85,-99.99,,,0.02,weatherlink.com 1.10,2014-04-16 22:20:00,
2014-04-16 18:35:00,72.5,67.0,30.00,East,80,1.0,-999.0,84,-99.99,,,0.02,weatherlink.com 1.10,2014-04-16 22:35:00,